Terminal Aerodrome Forecast
Issued by NWS

Home | Current Version | Previous Version | Text Only | Print | Product List | Glossary On
Versions: 1 2 3 4 5 6 7 8 9 10 11 12 13 14 15 16 17 18 19 20 21 22 23 24 25 26 27 28 29 30 31 32 33 34 35 36 37 38 39 40 41 42 43 44 45 46 47 48 49 50
000
FTUS43 KDMX 310648 AAA
TAFOTM
TAF AMD
KOTM 310648Z 3107/0106 VRB03KT 1SM BR SKC
      TEMPO 3109/3113 1/4SM FG BKN002
     FM311400 16007KT 3SM BR SCT002
     FM311500 17006KT 5SM BR SCT002
     FM311800 17008KT P6SM SCT020=

USA.gov is the U.S. government's official web portal to all federal, state and local government web resources and services.